WX3I Weather Reports


Display with metric or nautical units.
time (UTC)temp
F
wind
direction
speed
MPH
gust
MPH
rain 1hr
in
rain 24hr
in
rain mn
in
humidity
%
barometer
mb
20260504175004 69 320 2.0 7.0 0.00 0.00 0.00 38 1013.2
20260504174504 69 348 1.0 6.0 0.00 0.00 0.00 39 1013.3
20260504174004 69 188 4.0 9.0 0.00 0.00 0.00 38 1013.4
20260504173504 69 254 2.0 8.0 0.00 0.00 0.00 39 1013.6
20260504173004 69 94 2.0 6.0 0.00 0.00 0.00 38 1013.5
20260504172004 68 324 3.0 7.0 0.00 0.00 0.00 37 1013.5
20260504171504 68 212 5.0 9.0 0.00 0.00 0.00 38 1013.6
20260504171004 67 182 2.0 9.0 0.00 0.00 0.00 38 1013.8
20260504170504 68 225 3.0 13.0 0.00 0.00 0.00 39 1013.9
20260504151004 65 212 3.0 7.0 0.00 0.00 0.00 43 1015.1
20260504150504 64 310 4.0 7.0 0.00 0.00 0.00 43 1015.2
20260504141004 60 210 5.0 9.0 0.00 0.00 0.00 52 1015.2
20260504140504 60 194 4.0 7.0 0.00 0.00 0.00 53 1015.2
20260504130504 56 215 5.0 8.0 0.00 0.00 0.00 62 1015.6
20260504110504 49 209 2.0 8.0 0.00 0.00 0.00 66 1016.0
20260504100504 46 180 2.0 6.0 0.00 0.00 0.00 60 1015.9
20260504082004 46 221 0.0 1.0 0.00 0.00 0.00 56 1015.9
20260504081504 47 193 0.0 3.0 0.00 0.00 0.00 55 1015.9
20260504081004 47 173 0.0 2.0 0.00 0.00 0.00 54 1015.9
20260504080504 47 185 0.0 2.0 0.00 0.00 0.00 53 1015.9
20260504050504 48 208 0.0 0.0 0.00 0.00 0.00 52 1015.9
20260504050004 48 208 0.0 1.0 0.00 0.00 0.00 52 1015.9
20260504045504 48 196 0.0 0.0 0.00 0.00 0.00 51 1015.9
20260504045004 48 225 0.0 0.0 0.00 0.00 0.00 52 1015.9
20260504044504 48 229 0.0 0.0 0.00 0.00 0.00 52 1015.8
20260504043504 48 230 0.0 0.0 0.00 0.00 0.00 52 1015.8
20260504043004 48 230 0.0 0.0 0.00 0.00 0.00 52 1015.8
20260504042505 48 230 0.0 0.0 0.00 0.00 0.00 52 1015.7
20260504042004 48 230 0.0 0.0 0.00 0.00 0.00 52 1015.7
20260504041504 48 215 0.0 0.0 0.00 0.00 0.00 53 1015.6
20260504041005 48 207 0.0 0.0 0.00 0.00 0.00 51 1015.5
20260504040505 48 207 0.0 0.0 0.00 0.00 0.00 52 1015.5
20260504040004 48 207 0.0 0.0 0.00 0.00 0.00 52 1015.5
20260504035504 48 207 0.0 0.0 0.00 0.00 0.00 51 1015.5
20260504035004 48 207 0.0 0.0 0.00 0.00 0.00 51 1015.4
20260504034504 48 207 0.0 0.0 0.00 0.00 0.00 51 1015.4
20260504034004 49 207 0.0 1.0 0.00 0.00 0.00 51 1015.4
20260504033504 49 217 0.0 2.0 0.00 0.00 0.00 51 1015.3
20260504033004 49 233 0.0 2.0 0.00 0.00 0.00 50 1015.3
20260504032504 49 89 0.0 1.0 0.00 0.00 0.00 51 1015.3
20260504032004 49 228 0.0 0.0 0.00 0.00 0.00 50 1015.4
20260504031004 49 306 0.0 1.0 0.00 0.00 0.00 50 1015.3
20260504030505 49 305 0.0 1.0 0.00 0.00 0.00 50 1015.2
20260504030004 49 221 0.0 1.0 0.00 0.00 0.00 49 1015.3
20260504025504 50 229 0.0 1.0 0.00 0.00 0.00 49 1015.2
20260504025004 49 230 1.0 2.0 0.00 0.00 0.00 49 1015.2
20260504024504 49 232 0.0 1.0 0.00 0.00 0.00 49 1015.3
20260504024004 49 213 0.0 1.0 0.00 0.00 0.00 49 1015.4
20260504023004 49 296 0.0 1.0 0.00 0.00 0.00 50 1015.3
20260504022004 50 247 0.0 1.0 0.00 0.00 0.00 49 1015.3
20260504021504 50 259 0.0 0.0 0.00 0.00 0.00 48 1015.4
20260504021004 50 259 0.0 2.0 0.00 0.00 0.00 48 1015.4
20260504020504 50 235 0.0 1.0 0.00 0.00 0.00 48 1015.3
20260504020004 50 217 0.0 2.0 0.00 0.00 0.00 48 1015.3
20260504015504 50 235 0.0 0.0 0.00 0.00 0.00 47 1015.2
20260504015004 50 235 0.0 0.0 0.00 0.00 0.00 47 1015.2
20260504014507 50 235 0.0 2.0 0.00 0.00 0.00 46 1015.1
20260504014004 50 264 0.0 2.0 0.00 0.00 0.00 47 1015.2
20260504013504 51 257 0.0 1.0 0.00 0.00 0.00 47 1015.1
20260504012504 51 22 0.0 1.0 0.00 0.00 0.00 46 1015.1
20260504011504 52 37 0.0 1.0 0.00 0.00 0.00 45 1015.0
20260504011004 52 37 0.0 1.0 0.00 0.00 0.00 44 1014.9
20260504010504 52 41 0.0 0.0 0.00 0.00 0.00 44 1014.8
20260504010004 52 41 0.0 0.0 0.00 0.00 0.00 44 1014.8
20260504005504 52 341 0.0 2.0 0.00 0.00 0.00 45 1014.7
20260504004504 52 304 0.0 1.0 0.00 0.00 0.00 43 1014.6
20260504004004 53 341 0.0 1.0 0.00 0.00 0.00 43 1014.6
20260504003504 53 329 0.0 0.0 0.00 0.00 0.00 42 1014.5
20260504003004 53 329 0.0 1.0 0.00 0.00 0.00 41 1014.5
20260504002004 54 48 0.0 0.0 0.00 0.00 0.00 40 1014.3
20260504001504 55 48 0.0 0.0 0.00 0.00 0.00 39 1014.3
20260504001004 55 48 0.0 0.0 0.00 0.00 0.00 39 1014.2
20260504000505 55 47 1.0 3.0 0.00 0.00 0.00 38 1014.2
20260504000004 56 47 0.0 3.0 0.00 0.00 0.00 38 1014.1
20260503235504 56 322 0.0 3.0 0.00 0.00 0.00 37 1014.1
20260503235005 56 358 1.0 3.0 0.00 0.00 0.00 38 1014.0
20260503234504 57 18 2.0 8.0 0.00 0.00 0.00 36 1014.0
20260503234004 57 15 2.0 3.0 0.00 0.00 0.00 35 1013.9
20260503233504 57 15 0.0 5.0 0.00 0.00 0.00 36 1013.9
20260503233005 57 330 1.0 6.0 0.00 0.00 0.00 35 1013.9
20260503232504 57 357 1.0 6.0 0.00 0.00 0.00 35 1013.8
20260503232004 57 4 0.0 6.0 0.00 0.00 0.00 37 1013.9
20260503230504 58 61 2.0 5.0 0.00 0.00 0.00 34 1013.8
20260503230004 58 12 1.0 5.0 0.00 0.00 0.00 34 1013.7
20260503225504 58 324 2.0 5.0 0.00 0.00 0.00 34 1013.7
20260503225004 58 2 2.0 5.0 0.00 0.00 0.00 34 1013.7
20260503224504 58 351 2.0 6.0 0.00 0.00 0.00 34 1013.7
20260503224004 58 0 3.0 8.0 0.00 0.00 0.00 34 1013.7
20260503223504 58 4 1.0 8.0 0.00 0.00 0.00 34 1013.8
20260503223004 58 11 1.0 9.0 0.00 0.00 0.00 34 1013.7
20260503222504 58 359 2.0 9.0 0.00 0.00 0.00 33 1013.7
20260503222004 59 351 2.0 7.0 0.00 0.00 0.00 33 1013.8
20260503221504 59 356 3.0 7.0 0.00 0.00 0.00 32 1013.6
20260503221004 59 348 3.0 9.0 0.00 0.00 0.00 32 1013.6
20260503220004 59 332 5.0 12.0 0.00 0.00 0.00 31 1013.6
20260503215504 59 355 6.0 12.0 0.00 0.00 0.00 31 1013.7
20260503215004 59 316 4.0 8.0 0.00 0.00 0.00 32 1013.5
20260503214504 59 349 3.0 6.0 0.00 0.00 0.00 31 1013.6
20260503214003 59 333 3.0 7.0 0.00 0.00 0.00 33 1013.6
20260503213504 59 6 2.0 9.0 0.00 0.00 0.00 33 1013.6
20260503212504 59 17 4.0 7.0 0.00 0.00 0.00 31 1013.5
20260503212004 59 352 3.0 8.0 0.00 0.00 0.00 32 1013.5
20260503211504 58 358 4.0 10.0 0.00 0.00 0.00 34 1013.6
20260503211004 58 348 5.0 12.0 0.00 0.00 0.00 32 1013.5
20260503210504 58 5 5.0 10.0 0.00 0.00 0.00 31 1013.5
20260503210005 59 2 5.0 10.0 0.00 0.00 0.00 33 1013.5
20260503205504 58 353 3.0 8.0 0.00 0.00 0.00 34 1013.5
20260503205005 58 354 4.0 8.0 0.00 0.00 0.00 33 1013.5
20260503204504 58 352 2.0 6.0 0.00 0.00 0.00 35 1013.6
20260503204004 58 10 1.0 9.0 0.00 0.00 0.00 34 1013.7
20260503203505 58 9 5.0 10.0 0.00 0.00 0.00 33 1013.7
20260503203004 58 24 5.0 12.0 0.00 0.00 0.00 32 1013.6
20260503202004 58 325 5.0 12.0 0.00 0.00 0.00 33 1013.7
20260503201504 57 353 5.0 9.0 0.00 0.00 0.00 33 1013.7
20260503201004 56 5 2.0 8.0 0.00 0.00 0.00 35 1013.7
20260503200505 57 25 4.0 10.0 0.00 0.00 0.00 34 1013.9
20260503200004 57 5 5.0 14.0 0.00 0.00 0.00 35 1013.8
20260503195505 57 2 3.0 9.0 0.00 0.00 0.00 35 1014.0
20260503195004 56 27 2.0 10.0 0.00 0.00 0.00 35 1014.0
20260503194504 56 317 6.0 9.0 0.00 0.00 0.00 35 1014.0
20260503194004 56 15 6.0 9.0 0.00 0.00 0.00 34 1014.1
20260503193505 56 5 4.0 9.0 0.00 0.00 0.00 35 1014.1
20260503193003 55 21 5.0 10.0 0.00 0.00 0.00 34 1014.1
20260503192504 55 356 5.0 9.0 0.00 0.00 0.00 35 1014.2
20260503191504 56 359 3.0 8.0 0.00 0.00 0.00 37 1014.3
20260503191004 56 13 3.0 9.0 0.00 0.00 0.00 37 1014.4
20260503190505 55 357 5.0 10.0 0.00 0.00 0.00 36 1014.3
20260503190004 56 3 3.0 8.0 0.00 0.00 0.00 36 1014.4
20260503185004 56 0 3.0 10.0 0.00 0.00 0.00 35 1014.5
20260503184504 56 357 2.0 9.0 0.00 0.00 0.00 38 1014.4
20260503183005 56 358 3.0 9.0 0.00 0.00 0.00 36 1014.6
20260503182505 55 22 3.0 9.0 0.00 0.00 0.00 37 1014.6
20260503182005 55 10 7.0 14.0 0.00 0.00 0.00 35 1014.8
20260503181505 54 22 3.0 8.0 0.00 0.00 0.00 37 1014.7
20260503181005 54 4 4.0 12.0 0.00 0.00 0.00 37 1014.7
20260503180504 54 351 8.0 13.0 0.00 0.00 0.00 35 1014.7
20260503180004 55 4 5.0 14.0 0.00 0.00 0.00 35 1014.5